Year,Month,Day,Hour,Minute,Value (Times are PST for temperature in C)
2017,08,04,00,00,21.10
2017,08,04,00,01,21.10
2017,08,04,00,02,21.10
2017,08,04,00,03,21.10
2017,08,04,00,04,21.10
2017,08,04,00,05,21.10
2017,08,04,00,06,21.00
2017,08,04,00,07,21.00
2017,08,04,00,08,21.00
2017,08,04,00,09,20.90
2017,08,04,00,10,20.90
2017,08,04,00,11,20.90
2017,08,04,00,12,20.90
2017,08,04,00,13,20.90
2017,08,04,00,14,20.90
2017,08,04,00,15,20.80
2017,08,04,00,16,20.80
2017,08,04,00,17,20.80
2017,08,04,00,18,20.80
2017,08,04,00,19,20.80
2017,08,04,00,20,20.70
2017,08,04,00,21,20.70
2017,08,04,00,22,20.70
2017,08,04,00,23,20.70
2017,08,04,00,24,20.60
2017,08,04,00,25,20.60
2017,08,04,00,26,20.60
2017,08,04,00,27,20.60
2017,08,04,00,28,20.60
2017,08,04,00,29,20.60
2017,08,04,00,30,20.60
2017,08,04,00,31,20.60
2017,08,04,00,32,20.50
2017,08,04,00,33,20.50
2017,08,04,00,34,20.50
2017,08,04,00,35,20.50
2017,08,04,00,36,20.50
2017,08,04,00,37,20.50
2017,08,04,00,38,20.40
2017,08,04,00,39,20.40
2017,08,04,00,40,20.40
2017,08,04,00,41,20.40
2017,08,04,00,42,20.30
2017,08,04,00,43,20.30
2017,08,04,00,44,20.30
2017,08,04,00,45,20.30
2017,08,04,00,46,20.30
2017,08,04,00,47,20.30
2017,08,04,00,48,20.30
2017,08,04,00,49,20.30
2017,08,04,00,50,20.30
2017,08,04,00,51,20.30
2017,08,04,00,52,20.30
2017,08,04,00,53,20.30
2017,08,04,00,54,20.30
2017,08,04,00,55,20.20
2017,08,04,00,56,20.20
2017,08,04,00,57,20.20
2017,08,04,00,58,20.20
2017,08,04,00,59,20.20
2017,08,04,01,00,20.20
2017,08,04,01,01,20.10
2017,08,04,01,02,20.10
2017,08,04,01,03,20.10
2017,08,04,01,04,20.00
2017,08,04,01,05,20.00
2017,08,04,01,06,20.00
2017,08,04,01,07,20.00
2017,08,04,01,08,20.00
2017,08,04,01,09,20.00
2017,08,04,01,10,19.90
2017,08,04,01,11,19.90
2017,08,04,01,12,19.90
2017,08,04,01,13,19.90
2017,08,04,01,14,19.80
2017,08,04,01,15,19.80
2017,08,04,01,16,19.80
2017,08,04,01,17,19.80
2017,08,04,01,18,19.80
2017,08,04,01,19,19.80
2017,08,04,01,20,19.80
2017,08,04,01,21,19.80
2017,08,04,01,22,19.80
2017,08,04,01,23,19.70
2017,08,04,01,24,19.70
2017,08,04,01,25,19.70
2017,08,04,01,26,19.70
2017,08,04,01,27,19.60
2017,08,04,01,28,19.60
2017,08,04,01,29,19.60
2017,08,04,01,30,19.50
2017,08,04,01,31,19.50
2017,08,04,01,32,19.50
2017,08,04,01,33,19.50
2017,08,04,01,34,19.40
2017,08,04,01,35,19.40
2017,08,04,01,36,19.40
2017,08,04,01,37,19.40
2017,08,04,01,38,19.40
2017,08,04,01,39,19.30
2017,08,04,01,40,19.30
2017,08,04,01,41,19.30
2017,08,04,01,42,19.30
2017,08,04,01,43,19.30
2017,08,04,01,44,19.20
2017,08,04,01,45,19.20
2017,08,04,01,46,19.20
2017,08,04,01,47,19.20
2017,08,04,01,48,19.10
2017,08,04,01,49,19.10
2017,08,04,01,50,19.10
2017,08,04,01,51,19.00
2017,08,04,01,52,19.00
2017,08,04,01,53,18.90
2017,08,04,01,54,18.90
2017,08,04,01,55,18.90
2017,08,04,01,56,18.90
2017,08,04,01,57,18.90
2017,08,04,01,58,18.90
2017,08,04,01,59,18.80
2017,08,04,02,00,18.80
2017,08,04,02,01,18.80
2017,08,04,02,02,18.80
2017,08,04,02,03,18.80
2017,08,04,02,04,18.80
2017,08,04,02,05,18.80
2017,08,04,02,06,18.80
2017,08,04,02,07,18.80
2017,08,04,02,08,18.80
2017,08,04,02,09,18.80
2017,08,04,02,10,18.80
2017,08,04,02,11,18.80
2017,08,04,02,12,18.80
2017,08,04,02,13,18.80
2017,08,04,02,14,18.70
2017,08,04,02,15,18.70
2017,08,04,02,16,18.70
2017,08,04,02,17,18.70
2017,08,04,02,18,18.70
2017,08,04,02,19,18.70
2017,08,04,02,20,18.60
2017,08,04,02,21,18.60
2017,08,04,02,22,18.60
2017,08,04,02,23,18.60
2017,08,04,02,24,18.60
2017,08,04,02,25,18.60
2017,08,04,02,26,18.60
2017,08,04,02,27,18.60
2017,08,04,02,28,18.60
2017,08,04,02,29,18.60
2017,08,04,02,30,18.60
2017,08,04,02,31,18.60
2017,08,04,02,32,18.60
2017,08,04,02,33,18.50
2017,08,04,02,34,18.50
2017,08,04,02,35,18.50
2017,08,04,02,36,18.40
2017,08,04,02,37,18.40
2017,08,04,02,38,18.40
2017,08,04,02,39,18.40
2017,08,04,02,40,18.30
2017,08,04,02,41,18.30
2017,08,04,02,42,18.30
2017,08,04,02,43,18.30
2017,08,04,02,44,18.30
2017,08,04,02,45,18.30
2017,08,04,02,46,18.30
2017,08,04,02,47,18.20
2017,08,04,02,48,18.20
2017,08,04,02,49,18.20
2017,08,04,02,50,18.20
2017,08,04,02,51,18.10
2017,08,04,02,52,18.10
2017,08,04,02,53,18.10
2017,08,04,02,54,18.10
2017,08,04,02,55,18.10
2017,08,04,02,56,18.10
2017,08,04,02,57,18.10
2017,08,04,02,58,18.10
2017,08,04,02,59,18.10
2017,08,04,03,00,18.10
2017,08,04,03,01,18.00
2017,08,04,03,02,18.00
2017,08,04,03,03,18.00
2017,08,04,03,04,18.00
2017,08,04,03,05,17.90
2017,08,04,03,06,17.90
2017,08,04,03,07,17.90
2017,08,04,03,08,17.90
2017,08,04,03,09,17.90
2017,08,04,03,10,17.90
2017,08,04,03,11,17.90
2017,08,04,03,12,17.80
2017,08,04,03,13,17.80
2017,08,04,03,14,17.80
2017,08,04,03,15,17.80
2017,08,04,03,16,17.80
2017,08,04,03,17,17.80
2017,08,04,03,18,17.80
2017,08,04,03,19,17.70
2017,08,04,03,20,17.70
2017,08,04,03,21,17.70
2017,08,04,03,22,17.60
2017,08,04,03,23,17.60
2017,08,04,03,24,17.60
2017,08,04,03,25,17.60
2017,08,04,03,26,17.50
2017,08,04,03,27,17.50
2017,08,04,03,28,17.50
2017,08,04,03,29,17.50
2017,08,04,03,30,17.50
2017,08,04,03,31,17.40
2017,08,04,03,32,17.40
2017,08,04,03,33,17.40
2017,08,04,03,34,17.40
2017,08,04,03,35,17.40
2017,08,04,03,36,17.40
2017,08,04,03,37,17.40
2017,08,04,03,38,17.40
2017,08,04,03,39,17.40
2017,08,04,03,40,17.40
2017,08,04,03,41,17.40
2017,08,04,03,42,17.40
2017,08,04,03,43,17.40
2017,08,04,03,44,17.30
2017,08,04,03,45,17.30
2017,08,04,03,46,17.30
2017,08,04,03,47,17.30
2017,08,04,03,48,17.30
2017,08,04,03,49,17.30
2017,08,04,03,50,17.30
2017,08,04,03,51,17.30
2017,08,04,03,52,17.30
2017,08,04,03,53,17.30
2017,08,04,03,54,17.30
2017,08,04,03,55,17.30
2017,08,04,03,56,17.30
2017,08,04,03,57,17.30
2017,08,04,03,58,17.30
2017,08,04,03,59,17.30
2017,08,04,04,00,17.30
2017,08,04,04,01,17.30
2017,08,04,04,02,17.20
2017,08,04,04,03,17.20
2017,08,04,04,04,17.20
2017,08,04,04,05,17.20
2017,08,04,04,06,17.20
2017,08,04,04,07,17.20
2017,08,04,04,08,17.20
2017,08,04,04,09,17.10
2017,08,04,04,10,17.10
2017,08,04,04,11,17.10
2017,08,04,04,12,17.10
2017,08,04,04,13,17.10
2017,08,04,04,14,17.10
2017,08,04,04,15,17.00
2017,08,04,04,16,17.00
2017,08,04,04,17,16.90
2017,08,04,04,18,16.90
2017,08,04,04,19,16.90
2017,08,04,04,20,16.90
2017,08,04,04,21,16.90
2017,08,04,04,22,16.80
2017,08,04,04,23,16.80
2017,08,04,04,24,16.80
2017,08,04,04,25,16.80
2017,08,04,04,26,16.80
2017,08,04,04,27,16.80
2017,08,04,04,28,16.80
2017,08,04,04,29,16.80
2017,08,04,04,30,16.80
2017,08,04,04,31,16.70
2017,08,04,04,32,16.70
2017,08,04,04,33,16.70
2017,08,04,04,34,16.70
2017,08,04,04,35,16.70
2017,08,04,04,36,16.70
2017,08,04,04,37,16.70
2017,08,04,04,38,16.70
2017,08,04,04,39,16.70
2017,08,04,04,40,16.70
2017,08,04,04,41,16.70
2017,08,04,04,42,16.70
2017,08,04,04,43,16.60
2017,08,04,04,44,16.60
2017,08,04,04,45,16.60
2017,08,04,04,46,16.60
2017,08,04,04,47,16.60
2017,08,04,04,48,16.60
2017,08,04,04,49,16.60
2017,08,04,04,50,16.60
2017,08,04,04,51,16.60
2017,08,04,04,52,16.60
2017,08,04,04,53,16.60
2017,08,04,04,54,16.60
2017,08,04,04,55,16.60
2017,08,04,04,56,16.60
2017,08,04,04,57,16.50
2017,08,04,04,58,16.50
2017,08,04,04,59,16.50
2017,08,04,05,00,16.50
2017,08,04,05,01,16.50
2017,08,04,05,02,16.50
2017,08,04,05,03,16.50
2017,08,04,05,04,16.50
2017,08,04,05,05,16.50
2017,08,04,05,06,16.50
2017,08,04,05,07,16.50
2017,08,04,05,08,16.50
2017,08,04,05,09,16.50
2017,08,04,05,10,16.50
2017,08,04,05,11,16.40
2017,08,04,05,12,16.40
2017,08,04,05,13,16.50
2017,08,04,05,14,16.50
2017,08,04,05,15,16.60
2017,08,04,05,16,16.60
2017,08,04,05,17,16.70
2017,08,04,05,18,16.70
2017,08,04,05,19,16.80
2017,08,04,05,20,16.80
2017,08,04,05,21,16.80
2017,08,04,05,22,16.90
2017,08,04,05,23,16.90
2017,08,04,05,24,16.90
2017,08,04,05,25,16.90
2017,08,04,05,26,16.90
2017,08,04,05,27,16.90
2017,08,04,05,28,16.90
2017,08,04,05,29,16.90
2017,08,04,05,30,16.90
2017,08,04,05,31,16.80
2017,08,04,05,32,16.80
2017,08,04,05,33,16.80
2017,08,04,05,34,16.80
2017,08,04,05,35,16.80
2017,08,04,05,36,16.80
2017,08,04,05,37,16.80
2017,08,04,05,38,16.80
2017,08,04,05,39,16.80
2017,08,04,05,40,16.70
2017,08,04,05,41,16.70
2017,08,04,05,42,16.70
2017,08,04,05,43,16.70
2017,08,04,05,44,16.60
2017,08,04,05,45,16.60
2017,08,04,05,46,16.60
2017,08,04,05,47,16.50
2017,08,04,05,48,16.50
2017,08,04,05,49,16.50
2017,08,04,05,50,16.50
2017,08,04,05,51,16.40
2017,08,04,05,52,16.40
2017,08,04,05,53,16.40
2017,08,04,05,54,16.40
2017,08,04,05,55,16.40
2017,08,04,05,56,16.40
2017,08,04,05,57,16.40
2017,08,04,05,58,16.40
2017,08,04,05,59,16.40
2017,08,04,06,00,16.40
2017,08,04,06,01,16.40
2017,08,04,06,02,16.40
2017,08,04,06,03,16.30
2017,08,04,06,04,16.30
2017,08,04,06,05,16.30
2017,08,04,06,06,16.30
2017,08,04,06,07,16.30
2017,08,04,06,08,16.30
2017,08,04,06,09,16.30
2017,08,04,06,10,16.30
2017,08,04,06,11,16.30
2017,08,04,06,12,16.20
2017,08,04,06,13,16.20
2017,08,04,06,14,16.20
2017,08,04,06,15,16.20
2017,08,04,06,16,16.20
2017,08,04,06,17,16.20
2017,08,04,06,18,16.20
2017,08,04,06,19,16.20
2017,08,04,06,20,16.10
2017,08,04,06,21,16.10
2017,08,04,06,22,16.10
2017,08,04,06,23,16.10
2017,08,04,06,24,16.10
2017,08,04,06,25,16.10
2017,08,04,06,26,16.10
2017,08,04,06,27,16.10
2017,08,04,06,28,16.10
2017,08,04,06,29,16.10
2017,08,04,06,30,16.10
2017,08,04,06,31,16.10
2017,08,04,06,32,16.10
2017,08,04,06,33,16.10
2017,08,04,06,34,16.20
2017,08,04,06,35,16.20
2017,08,04,06,36,16.10
2017,08,04,06,37,16.10
2017,08,04,06,38,16.10
2017,08,04,06,39,16.10
2017,08,04,06,40,16.10
2017,08,04,06,41,16.10
2017,08,04,06,42,16.10
2017,08,04,06,43,16.20
2017,08,04,06,44,16.20
2017,08,04,06,45,16.20
2017,08,04,06,46,16.20
2017,08,04,06,47,16.20
2017,08,04,06,48,16.20
2017,08,04,06,49,16.20
2017,08,04,06,50,16.20
2017,08,04,06,51,16.20
2017,08,04,06,52,16.20
2017,08,04,06,53,16.20
2017,08,04,06,54,16.20
2017,08,04,06,55,16.20
2017,08,04,06,56,16.20
2017,08,04,06,57,16.20
2017,08,04,06,58,16.20
2017,08,04,06,59,16.20
2017,08,04,07,00,16.30
2017,08,04,07,01,16.30
2017,08,04,07,02,16.20
2017,08,04,07,03,16.20
2017,08,04,07,04,16.30
2017,08,04,07,05,16.30
2017,08,04,07,06,16.30
2017,08,04,07,07,16.30
2017,08,04,07,08,16.30
2017,08,04,07,09,16.30
2017,08,04,07,10,16.30
2017,08,04,07,11,16.30
2017,08,04,07,12,16.30
2017,08,04,07,13,16.20
2017,08,04,07,14,16.20
2017,08,04,07,15,16.20
2017,08,04,07,16,16.10
2017,08,04,07,17,16.10
2017,08,04,07,18,16.10
2017,08,04,07,19,16.10
2017,08,04,07,20,16.10
2017,08,04,07,21,16.10
2017,08,04,07,22,16.10
2017,08,04,07,23,16.10
2017,08,04,07,24,16.10
2017,08,04,07,25,16.10
2017,08,04,07,26,16.10
2017,08,04,07,27,16.10
2017,08,04,07,28,16.10
2017,08,04,07,29,16.10
2017,08,04,07,30,16.10
2017,08,04,07,31,16.10
2017,08,04,07,32,16.20
2017,08,04,07,33,16.20
2017,08,04,07,34,16.20
2017,08,04,07,35,16.20
2017,08,04,07,36,16.20
2017,08,04,07,37,16.20
2017,08,04,07,38,16.20
2017,08,04,07,39,16.30
2017,08,04,07,40,16.30
2017,08,04,07,41,16.30
2017,08,04,07,42,16.30
2017,08,04,07,43,16.40
2017,08,04,07,44,16.40
2017,08,04,07,45,16.40
2017,08,04,07,46,16.50
2017,08,04,07,47,16.50
2017,08,04,07,48,16.50
2017,08,04,07,49,16.60
2017,08,04,07,50,16.60
2017,08,04,07,51,16.70
2017,08,04,07,52,16.70
2017,08,04,07,53,16.80
2017,08,04,07,54,16.80
2017,08,04,07,55,16.90
2017,08,04,07,56,17.00
2017,08,04,07,57,17.10
2017,08,04,07,58,17.30
2017,08,04,07,59,17.40
2017,08,04,08,00,17.50
2017,08,04,08,01,17.60
2017,08,04,08,02,17.80
2017,08,04,08,03,17.90
2017,08,04,08,04,18.00
2017,08,04,08,05,18.10
2017,08,04,08,06,18.20
2017,08,04,08,07,18.30
2017,08,04,08,08,18.40
2017,08,04,08,09,18.50
2017,08,04,08,10,18.60
2017,08,04,08,11,18.70
2017,08,04,08,12,18.80
2017,08,04,08,13,18.80
2017,08,04,08,14,18.90
2017,08,04,08,15,18.90
2017,08,04,08,16,19.00
2017,08,04,08,17,18.90
2017,08,04,08,18,18.90
2017,08,04,08,19,19.00
2017,08,04,08,20,19.00
2017,08,04,08,21,19.00
2017,08,04,08,22,19.00
2017,08,04,08,23,19.00
2017,08,04,08,24,19.10
2017,08,04,08,25,19.10
2017,08,04,08,26,19.10
2017,08,04,08,27,19.10
2017,08,04,08,28,19.10
2017,08,04,08,29,19.20
2017,08,04,08,30,19.20
2017,08,04,08,31,19.30
2017,08,04,08,32,19.30
2017,08,04,08,33,19.40
2017,08,04,08,34,19.40
2017,08,04,08,35,19.50
2017,08,04,08,36,19.60
2017,08,04,08,37,19.60
2017,08,04,08,38,19.60
2017,08,04,08,39,19.70
2017,08,04,08,40,19.70
2017,08,04,08,41,19.70
2017,08,04,08,42,19.60
2017,08,04,08,43,19.60
2017,08,04,08,44,19.70
2017,08,04,08,45,19.70
2017,08,04,08,46,19.70
2017,08,04,08,47,19.70
2017,08,04,08,48,19.70
2017,08,04,08,49,19.70
2017,08,04,08,50,19.70
2017,08,04,08,51,19.70
2017,08,04,08,52,19.70
2017,08,04,08,53,19.80
2017,08,04,08,54,19.80
2017,08,04,08,55,19.70
2017,08,04,08,56,19.70
2017,08,04,08,57,19.70
2017,08,04,08,58,19.70
2017,08,04,08,59,19.70
2017,08,04,09,00,19.70
2017,08,04,09,01,19.70
2017,08,04,09,02,19.70
2017,08,04,09,03,19.70
2017,08,04,09,04,19.70
2017,08,04,09,05,19.70
2017,08,04,09,06,19.70
2017,08,04,09,07,19.70
2017,08,04,09,08,19.70
2017,08,04,09,09,19.70
2017,08,04,09,10,19.70
2017,08,04,09,11,19.70
2017,08,04,09,12,19.70
2017,08,04,09,13,19.70
2017,08,04,09,14,19.70
2017,08,04,09,15,19.60
2017,08,04,09,16,19.60
2017,08,04,09,17,19.60
2017,08,04,09,18,19.60
2017,08,04,09,19,19.50
2017,08,04,09,20,19.50
2017,08,04,09,21,19.50
2017,08,04,09,22,19.60
2017,08,04,09,23,19.60
2017,08,04,09,24,19.60
2017,08,04,09,25,19.70
2017,08,04,09,26,19.70
2017,08,04,09,27,19.80
2017,08,04,09,28,19.80
2017,08,04,09,29,19.90
2017,08,04,09,30,19.90
2017,08,04,09,31,19.90
2017,08,04,09,32,20.00
2017,08,04,09,33,20.00
2017,08,04,09,34,20.10
2017,08,04,09,35,20.10
2017,08,04,09,36,20.10
2017,08,04,09,37,20.20
2017,08,04,09,38,20.20
2017,08,04,09,39,20.20
2017,08,04,09,40,20.20
2017,08,04,09,41,20.20
2017,08,04,09,42,20.30
2017,08,04,09,43,20.30
2017,08,04,09,44,20.40
2017,08,04,09,45,20.50
2017,08,04,09,46,20.50
2017,08,04,09,47,20.50
2017,08,04,09,48,20.60
2017,08,04,09,49,20.70
2017,08,04,09,50,20.70
2017,08,04,09,51,20.70
2017,08,04,09,52,20.70
2017,08,04,09,53,20.80
2017,08,04,09,54,20.80
2017,08,04,09,55,20.80
2017,08,04,09,56,20.80
2017,08,04,09,57,20.90
2017,08,04,09,58,20.90
2017,08,04,09,59,20.90
2017,08,04,10,00,20.90
2017,08,04,10,01,20.90
2017,08,04,10,02,20.90
2017,08,04,10,03,20.90
2017,08,04,10,04,20.90
2017,08,04,10,05,20.90
2017,08,04,10,06,21.00
2017,08,04,10,07,21.00
2017,08,04,10,08,21.10
2017,08,04,10,09,21.10
2017,08,04,10,10,21.10
2017,08,04,10,11,21.20
2017,08,04,10,12,21.20
2017,08,04,10,13,21.20
2017,08,04,10,14,21.20
2017,08,04,10,15,21.30
2017,08,04,10,16,21.30
2017,08,04,10,17,21.20
2017,08,04,10,18,21.20
2017,08,04,10,19,21.30
2017,08,04,10,20,21.30
2017,08,04,10,21,21.30
2017,08,04,10,22,21.30
2017,08,04,10,23,21.30
2017,08,04,10,24,21.40
2017,08,04,10,25,21.40
2017,08,04,10,26,21.50
2017,08,04,10,27,21.50
2017,08,04,10,28,21.60
2017,08,04,10,29,21.60
2017,08,04,10,30,21.60
2017,08,04,10,31,21.70
2017,08,04,10,32,21.80
2017,08,04,10,33,21.90
2017,08,04,10,34,22.00
2017,08,04,10,35,22.10
2017,08,04,10,36,22.20
2017,08,04,10,37,22.30
2017,08,04,10,38,22.30
2017,08,04,10,39,22.30
2017,08,04,10,40,22.30
2017,08,04,10,41,22.30
2017,08,04,10,42,22.40
2017,08,04,10,43,22.40
2017,08,04,10,44,22.50
2017,08,04,10,45,22.60
2017,08,04,10,46,22.60
2017,08,04,10,47,22.70
2017,08,04,10,48,22.70
2017,08,04,10,49,22.80
2017,08,04,10,50,22.80
2017,08,04,10,51,22.80
2017,08,04,10,52,22.80
2017,08,04,10,53,22.90
2017,08,04,10,54,23.00
2017,08,04,10,55,23.00
2017,08,04,10,56,23.10
2017,08,04,10,57,23.20
2017,08,04,10,58,23.20
2017,08,04,10,59,23.30
2017,08,04,11,00,23.30
2017,08,04,11,01,23.30
2017,08,04,11,02,23.40
2017,08,04,11,03,23.40
2017,08,04,11,04,23.40
2017,08,04,11,05,23.40
2017,08,04,11,06,23.40
2017,08,04,11,07,23.50
2017,08,04,11,08,23.50
2017,08,04,11,09,23.50
2017,08,04,11,10,23.50
2017,08,04,11,11,23.60
2017,08,04,11,12,23.60
2017,08,04,11,13,23.70
2017,08,04,11,14,23.80
2017,08,04,11,15,23.90
2017,08,04,11,16,23.90
2017,08,04,11,17,24.00
2017,08,04,11,18,24.10
2017,08,04,11,19,24.10
2017,08,04,11,20,24.20
2017,08,04,11,21,24.20
2017,08,04,11,22,24.10
2017,08,04,11,23,24.00
2017,08,04,11,24,23.90
2017,08,04,11,25,23.90
2017,08,04,11,26,23.80
2017,08,04,11,27,23.80
2017,08,04,11,28,23.80
2017,08,04,11,29,23.80
2017,08,04,11,30,23.90
2017,08,04,11,31,24.00
2017,08,04,11,32,24.00
2017,08,04,11,33,24.10
2017,08,04,11,34,24.20
2017,08,04,11,35,24.30
2017,08,04,11,36,24.40
2017,08,04,11,37,24.40
2017,08,04,11,38,24.50
2017,08,04,11,39,24.60
2017,08,04,11,40,24.50
2017,08,04,11,41,24.50
2017,08,04,11,42,24.50
2017,08,04,11,43,24.50
2017,08,04,11,44,24.50
2017,08,04,11,45,24.50
2017,08,04,11,46,24.60
2017,08,04,11,47,24.60
2017,08,04,11,48,24.60
2017,08,04,11,49,24.70
2017,08,04,11,50,24.70
2017,08,04,11,51,24.70
2017,08,04,11,52,24.70
2017,08,04,11,53,24.80
2017,08,04,11,54,24.80
2017,08,04,11,55,24.80
2017,08,04,11,56,24.90
2017,08,04,11,57,25.00
2017,08,04,11,58,25.10
2017,08,04,11,59,25.20
2017,08,04,12,00,25.30
2017,08,04,12,01,25.30
2017,08,04,12,02,25.30
2017,08,04,12,03,25.40
2017,08,04,12,04,25.50
2017,08,04,12,05,25.50
2017,08,04,12,06,25.50
2017,08,04,12,07,25.50
2017,08,04,12,08,25.40
2017,08,04,12,09,25.40
2017,08,04,12,10,25.40
2017,08,04,12,11,25.30
2017,08,04,12,12,25.30
2017,08,04,12,13,25.30
2017,08,04,12,14,25.30
2017,08,04,12,15,25.30
2017,08,04,12,16,25.30
2017,08,04,12,17,25.30
2017,08,04,12,18,25.30
2017,08,04,12,19,25.30
2017,08,04,12,20,25.30
2017,08,04,12,21,25.30
2017,08,04,12,22,25.30
2017,08,04,12,23,25.30
2017,08,04,12,24,25.40
2017,08,04,12,25,25.40
2017,08,04,12,26,25.40
2017,08,04,12,27,25.40
2017,08,04,12,28,25.40
2017,08,04,12,29,25.40
2017,08,04,12,30,25.40
2017,08,04,12,31,25.50
2017,08,04,12,32,25.60
2017,08,04,12,33,25.60
2017,08,04,12,34,25.60
2017,08,04,12,35,25.60
2017,08,04,12,36,25.60
2017,08,04,12,37,25.60
2017,08,04,12,38,25.50
2017,08,04,12,39,25.40
2017,08,04,12,40,25.30
2017,08,04,12,41,25.30
2017,08,04,12,42,25.20
2017,08,04,12,43,25.20
2017,08,04,12,44,25.20
2017,08,04,12,45,25.10
2017,08,04,12,46,25.10
2017,08,04,12,47,25.00
2017,08,04,12,48,25.00
2017,08,04,12,49,24.90
2017,08,04,12,50,24.90
2017,08,04,12,51,24.90
2017,08,04,12,52,24.90
2017,08,04,12,53,24.90
2017,08,04,12,54,24.90
2017,08,04,12,55,25.00
2017,08,04,12,56,25.00
2017,08,04,12,57,25.10
2017,08,04,12,58,25.10
2017,08,04,12,59,25.10
2017,08,04,13,00,25.10
2017,08,04,13,01,25.10
2017,08,04,13,02,25.10
2017,08,04,13,03,25.20
2017,08,04,13,04,25.10
2017,08,04,13,05,25.10
2017,08,04,13,06,25.10
2017,08,04,13,07,25.20
2017,08,04,13,08,25.20
2017,08,04,13,09,25.20
2017,08,04,13,10,25.20
2017,08,04,13,11,25.20
2017,08,04,13,12,25.10
2017,08,04,13,13,25.10
2017,08,04,13,14,25.10
2017,08,04,13,15,25.10
2017,08,04,13,16,25.10
2017,08,04,13,17,25.10
2017,08,04,13,18,25.20
2017,08,04,13,19,25.20
2017,08,04,13,20,25.20
2017,08,04,13,21,25.20
2017,08,04,13,22,25.20
2017,08,04,13,23,25.20
2017,08,04,13,24,25.20
2017,08,04,13,25,25.30
2017,08,04,13,26,25.30
2017,08,04,13,27,25.40
2017,08,04,13,28,25.50
2017,08,04,13,29,25.50
2017,08,04,13,30,25.60
2017,08,04,13,31,25.70
2017,08,04,13,32,25.70
2017,08,04,13,33,25.70
2017,08,04,13,34,25.80
2017,08,04,13,35,25.90
2017,08,04,13,36,25.90
2017,08,04,13,37,25.90
2017,08,04,13,38,26.00
2017,08,04,13,39,26.00
2017,08,04,13,40,26.10
2017,08,04,13,41,26.20
2017,08,04,13,42,26.20
2017,08,04,13,43,26.30
2017,08,04,13,44,26.40
2017,08,04,13,45,26.40
2017,08,04,13,46,26.50
2017,08,04,13,47,26.50
2017,08,04,13,48,26.60
2017,08,04,13,49,26.60
2017,08,04,13,50,26.60
2017,08,04,13,51,26.60
2017,08,04,13,52,26.60
2017,08,04,13,53,26.70
2017,08,04,13,54,26.70
2017,08,04,13,55,26.80
2017,08,04,13,56,26.90
2017,08,04,13,57,27.00
2017,08,04,13,58,27.00
2017,08,04,13,59,27.10
2017,08,04,14,00,27.10
2017,08,04,14,01,27.20
2017,08,04,14,02,27.30
2017,08,04,14,03,27.30
2017,08,04,14,04,27.40
2017,08,04,14,05,27.50
2017,08,04,14,06,27.60
2017,08,04,14,07,27.70
2017,08,04,14,08,27.70
2017,08,04,14,09,27.80
2017,08,04,14,10,27.80
2017,08,04,14,11,27.80
2017,08,04,14,12,27.80
2017,08,04,14,13,27.80
2017,08,04,14,14,27.70
2017,08,04,14,15,27.70
2017,08,04,14,16,27.70
2017,08,04,14,17,27.70
2017,08,04,14,18,27.70
2017,08,04,14,19,27.70
2017,08,04,14,20,27.70
2017,08,04,14,21,27.70
2017,08,04,14,22,27.60
2017,08,04,14,23,27.60
2017,08,04,14,24,27.60
2017,08,04,14,25,27.50
2017,08,04,14,26,27.40
2017,08,04,14,27,27.40
2017,08,04,14,28,27.40
2017,08,04,14,29,27.30
2017,08,04,14,30,27.40
2017,08,04,14,31,27.30
2017,08,04,14,32,27.30
2017,08,04,14,33,27.30
2017,08,04,14,34,27.30
2017,08,04,14,35,27.30
2017,08,04,14,36,27.30
2017,08,04,14,37,27.30
2017,08,04,14,38,27.30
2017,08,04,14,39,27.40
2017,08,04,14,40,27.40
2017,08,04,14,41,27.50
2017,08,04,14,42,27.60
2017,08,04,14,43,27.60
2017,08,04,14,44,27.70
2017,08,04,14,45,27.70
2017,08,04,14,46,27.70
2017,08,04,14,47,27.70
2017,08,04,14,48,27.70
2017,08,04,14,49,27.80
2017,08,04,14,50,27.80
2017,08,04,14,51,27.80
2017,08,04,14,52,27.80
2017,08,04,14,53,27.80
2017,08,04,14,54,27.80
2017,08,04,14,55,27.90
2017,08,04,14,56,27.90
2017,08,04,14,57,28.00
2017,08,04,14,58,28.00
2017,08,04,14,59,28.00
2017,08,04,15,00,28.00
2017,08,04,15,01,28.00
2017,08,04,15,02,27.90
2017,08,04,15,03,27.90
2017,08,04,15,04,27.90
2017,08,04,15,05,27.90
2017,08,04,15,06,27.90
2017,08,04,15,07,27.80
2017,08,04,15,08,27.80
2017,08,04,15,09,27.80
2017,08,04,15,10,27.80
2017,08,04,15,11,27.70
2017,08,04,15,12,27.70
2017,08,04,15,13,27.70
2017,08,04,15,14,27.70
2017,08,04,15,15,27.70
2017,08,04,15,16,27.70
2017,08,04,15,17,27.70
2017,08,04,15,18,27.70
2017,08,04,15,19,27.70
2017,08,04,15,20,27.70
2017,08,04,15,21,27.60
2017,08,04,15,22,27.60
2017,08,04,15,23,27.60
2017,08,04,15,24,27.70
2017,08,04,15,25,27.70
2017,08,04,15,26,27.70
2017,08,04,15,27,27.70
2017,08,04,15,28,27.70
2017,08,04,15,29,27.70
2017,08,04,15,30,27.70
2017,08,04,15,31,27.70
2017,08,04,15,32,27.60
2017,08,04,15,33,27.60
2017,08,04,15,34,27.60
2017,08,04,15,35,27.60
2017,08,04,15,36,27.60
2017,08,04,15,37,27.60
2017,08,04,15,38,27.60
2017,08,04,15,39,27.70
2017,08,04,15,40,27.70
2017,08,04,15,41,27.70
2017,08,04,15,42,27.80
2017,08,04,15,43,27.80
2017,08,04,15,44,27.90
2017,08,04,15,45,27.90
2017,08,04,15,46,27.90
2017,08,04,15,47,27.90
2017,08,04,15,48,28.00
2017,08,04,15,49,27.90
2017,08,04,15,50,27.90
2017,08,04,15,51,27.90
2017,08,04,15,52,27.80
2017,08,04,15,53,27.80
2017,08,04,15,54,27.80
2017,08,04,15,55,27.80
2017,08,04,15,56,27.80
2017,08,04,15,57,27.80
2017,08,04,15,58,27.80
2017,08,04,15,59,27.90
2017,08,04,16,00,27.90
2017,08,04,16,01,27.90
2017,08,04,16,02,28.00
2017,08,04,16,03,28.00
2017,08,04,16,04,28.00
2017,08,04,16,05,28.10
2017,08,04,16,06,28.10
2017,08,04,16,07,28.10
2017,08,04,16,08,28.10
2017,08,04,16,09,28.10
2017,08,04,16,10,28.10
2017,08,04,16,11,28.10
2017,08,04,16,12,28.10
2017,08,04,16,13,28.10
2017,08,04,16,14,28.10
2017,08,04,16,15,28.10
2017,08,04,16,16,28.10
2017,08,04,16,17,28.10
2017,08,04,16,18,28.10
2017,08,04,16,19,28.10
2017,08,04,16,20,28.10
2017,08,04,16,21,28.10
2017,08,04,16,22,28.10
2017,08,04,16,23,28.10
2017,08,04,16,24,28.10
2017,08,04,16,25,28.20
2017,08,04,16,26,28.20
2017,08,04,16,27,28.20
2017,08,04,16,28,28.20
2017,08,04,16,29,28.20
2017,08,04,16,30,28.30
2017,08,04,16,31,28.30
2017,08,04,16,32,28.30
2017,08,04,16,33,28.30
2017,08,04,16,34,28.30
2017,08,04,16,35,28.30
2017,08,04,16,36,28.30
2017,08,04,16,37,28.30
2017,08,04,16,38,28.30
2017,08,04,16,39,28.30
2017,08,04,16,40,28.40
2017,08,04,16,41,28.40
2017,08,04,16,42,28.40
2017,08,04,16,43,28.50
2017,08,04,16,44,28.50
2017,08,04,16,45,28.50
2017,08,04,16,46,28.50
2017,08,04,16,47,28.50
2017,08,04,16,48,28.40
2017,08,04,16,49,28.50
2017,08,04,16,50,28.50
2017,08,04,16,51,28.40
2017,08,04,16,52,28.40
2017,08,04,16,53,28.40
2017,08,04,16,54,28.30
2017,08,04,16,55,28.30
2017,08,04,16,56,28.30
2017,08,04,16,57,28.30
2017,08,04,16,58,28.30
2017,08,04,16,59,28.30
2017,08,04,17,00,28.30
2017,08,04,17,01,28.30
2017,08,04,17,02,28.30
2017,08,04,17,03,28.30
2017,08,04,17,04,28.30
2017,08,04,17,05,28.20
2017,08,04,17,06,28.20
2017,08,04,17,07,28.30
2017,08,04,17,08,28.20
2017,08,04,17,09,28.20
2017,08,04,17,10,28.20
2017,08,04,17,11,28.20
2017,08,04,17,12,28.20
2017,08,04,17,13,28.20
2017,08,04,17,14,28.20
2017,08,04,17,15,28.20
2017,08,04,17,16,28.20
2017,08,04,17,17,28.20
2017,08,04,17,18,28.20
2017,08,04,17,19,28.20